owner,sensor,date,latitude,longitude,vertical_datum,sea_water_practical_salinity,qcFlag 
DISL,ioos:station:DISL:PPTA:1,2012-10-01T00:00:00Z,30.2791,-87.5561,1.416,29.73,1111122 
DISL,ioos:station:DISL:PPTA:1,2012-10-01T00:30:00Z,30.2791,-87.5561,1.487,29.81,1111122 
DISL,ioos:station:DISL:PPTA:1,2012-10-01T01:00:00Z,30.2791,-87.5561,1.463,29.41,1111122 
DISL,ioos:station:DISL:PPTA:1,2012-10-01T01:30:00Z,30.2791,-87.5561,1.434,29.94,1111122 
DISL,ioos:station:DISL:PPTA:1,2012-10-01T02:00:00Z,30.2791,-87.5561,1.473,30.04,1111122 
DISL,ioos:station:DISL:PPTA:1,2012-10-01T02:30:00Z,30.2791,-87.5561,1.494,30.08,1111122 
DISL,ioos:station:DISL:PPTA:1,2012-10-01T03:00:00Z,30.2791,-87.5561,1.482,30.16,1111122 
DISL,ioos:station:DISL:PPTA:1,2012-10-01T03:30:00Z,30.2791,-87.5561,1.526,30.15,1111122 
DISL,ioos:station:DISL:PPTA:1,2012-10-01T04:00:00Z,30.2791,-87.5561,1.492,30.12,1111122 
DISL,ioos:station:DISL:PPTA:1,2012-10-01T04:30:00Z,30.2791,-87.5561,1.534,30.2,1111122 
DISL,ioos:station:DISL:PPTA:1,2012-10-01T05:00:00Z,30.2791,-87.5561,1.454,29.72,1111122 
DISL,ioos:station:DISL:PPTA:1,2012-10-01T05:30:00Z,30.2791,-87.5561,1.439,29.83,1111122 
DISL,ioos:station:DISL:PPTA:1,2012-10-01T06:00:00Z,30.2791,-87.5561,1.49,29.82,1111122 
DISL,ioos:station:DISL:PPTA:1,2012-10-01T06:30:00Z,30.2791,-87.5561,1.506,29.87,1111122 
DISL,ioos:station:DISL:PPTA:1,2012-10-01T07:00:00Z,30.2791,-87.5561,1.456,29.89,1111122 
DISL,ioos:station:DISL:PPTA:1,2012-10-01T07:30:00Z,30.2791,-87.5561,1.457,29.51,1111122 
DISL,ioos:station:DISL:PPTA:1,2012-10-01T08:00:00Z,30.2791,-87.5561,1.43,28.97,1111122 
DISL,ioos:station:DISL:PPTA:1,2012-10-01T08:30:00Z,30.2791,-87.5561,1.481,28.86,1111122 
DISL,ioos:station:DISL:PPTA:1,2012-10-01T09:00:00Z,30.2791,-87.5561,1.391,29.66,1111122 
DISL,ioos:station:DISL:PPTA:1,2012-10-01T09:30:00Z,30.2791,-87.5561,1.409,28.61,1111122 
DISL,ioos:station:DISL:PPTA:1,2012-10-01T10:00:00Z,30.2791,-87.5561,1.422,29.61,1111122 
DISL,ioos:station:DISL:PPTA:1,2012-10-01T10:30:00Z,30.2791,-87.5561,1.43,29.4,1111122 
DISL,ioos:station:DISL:PPTA:1,2012-10-01T11:00:00Z,30.2791,-87.5561,1.396,29.0,1111122 
DISL,ioos:station:DISL:PPTA:1,2012-10-01T11:30:00Z,30.2791,-87.5561,1.346,28.92,1111122 
DISL,ioos:station:DISL:PPTA:1,2012-10-01T12:00:00Z,30.2791,-87.5561,1.397,29.16,1111122 
DISL,ioos:station:DISL:PPTA:1,2012-10-01T12:30:00Z,30.2791,-87.5561,1.404,29.37,1111122 
DISL,ioos:station:DISL:PPTA:1,2012-10-01T13:00:00Z,30.2791,-87.5561,1.394,29.1,1111122 
DISL,ioos:station:DISL:PPTA:1,2012-10-01T13:30:00Z,30.2791,-87.5561,1.41,29.05,1111122 
DISL,ioos:station:DISL:PPTA:1,2012-10-01T14:00:00Z,30.2791,-87.5561,1.415,29.13,1111122 
DISL,ioos:station:DISL:PPTA:1,2012-10-01T14:30:00Z,30.2791,-87.5561,1.394,29.09,1111122 
DISL,ioos:station:DISL:PPTA:1,2012-10-01T15:00:00Z,30.2791,-87.5561,1.372,28.6,1111122 
DISL,ioos:station:DISL:PPTA:1,2012-10-01T15:30:00Z,30.2791,-87.5561,1.356,28.72,1111122 
DISL,ioos:station:DISL:PPTA:1,2012-10-01T16:00:00Z,30.2791,-87.5561,1.404,28.43,1111122 
DISL,ioos:station:DISL:PPTA:1,2012-10-01T16:30:00Z,30.2791,-87.5561,1.368,28.55,1111122 
DISL,ioos:station:DISL:PPTA:1,2012-10-01T17:00:00Z,30.2791,-87.5561,1.379,28.5,1111122 
DISL,ioos:station:DISL:PPTA:1,2012-10-01T17:30:00Z,30.2791,-87.5561,1.399,28.23,1111122 
DISL,ioos:station:DISL:PPTA:1,2012-10-01T18:00:00Z,30.2791,-87.5561,1.389,28.16,1111122 
DISL,ioos:station:DISL:PPTA:1,2012-10-01T18:30:00Z,30.2791,-87.5561,1.406,28.12,1111122 
DISL,ioos:station:DISL:PPTA:1,2012-10-01T19:00:00Z,30.2791,-87.5561,1.366,28.49,1111122 
DISL,ioos:station:DISL:PPTA:1,2012-10-01T19:30:00Z,30.2791,-87.5561,1.358,28.22,1111122 
DISL,ioos:station:DISL:PPTA:1,2012-10-01T20:00:00Z,30.2791,-87.5561,1.36,28.37,1111122 
DISL,ioos:station:DISL:PPTA:1,2012-10-01T20:30:00Z,30.2791,-87.5561,1.39,29.18,1111122 
DISL,ioos:station:DISL:PPTA:1,2012-10-01T21:00:00Z,30.2791,-87.5561,1.381,29.35,1111122 
DISL,ioos:station:DISL:PPTA:1,2012-10-01T21:30:00Z,30.2791,-87.5561,1.4,30.02,1111122 
DISL,ioos:station:DISL:PPTA:1,2012-10-01T22:00:00Z,30.2791,-87.5561,1.404,30.67,1111122 
DISL,ioos:station:DISL:PPTA:1,2012-10-01T22:30:00Z,30.2791,-87.5561,1.412,30.92,1111122 
DISL,ioos:station:DISL:PPTA:1,2012-10-01T23:00:00Z,30.2791,-87.5561,1.424,31.07,1111122 
DISL,ioos:station:DISL:PPTA:1,2012-10-01T23:30:00Z,30.2791,-87.5561,1.428,30.96,1111122 
DISL,ioos:station:DISL:PPTA:1,2012-10-02T00:00:00Z,30.2791,-87.5561,1.454,31.19,1111122 
DISL,ioos:station:DISL:PPTA:1,2012-10-02T00:30:00Z,30.2791,-87.5561,1.469,30.84,1111122 
DISL,ioos:station:DISL:PPTA:1,2012-10-02T01:00:00Z,30.2791,-87.5561,1.481,31.0,1111122 
DISL,ioos:station:DISL:PPTA:1,2012-10-02T01:30:00Z,30.2791,-87.5561,1.476,30.94,1111122 
DISL,ioos:station:DISL:PPTA:1,2012-10-02T02:00:00Z,30.2791,-87.5561,1.507,30.77,1111122 
DISL,ioos:station:DISL:PPTA:1,2012-10-02T02:30:00Z,30.2791,-87.5561,1.494,30.93,1111122 
DISL,ioos:station:DISL:PPTA:1,2012-10-02T03:00:00Z,30.2791,-87.5561,1.514,31.07,1111122 
DISL,ioos:station:DISL:PPTA:1,2012-10-02T03:30:00Z,30.2791,-87.5561,1.493,31.06,1111122 
DISL,ioos:station:DISL:PPTA:1,2012-10-02T04:00:00Z,30.2791,-87.5561,1.506,31.09,1111122 
DISL,ioos:station:DISL:PPTA:1,2012-10-02T04:30:00Z,30.2791,-87.5561,1.501,31.23,1111122 
DISL,ioos:station:DISL:PPTA:1,2012-10-02T05:00:00Z,30.2791,-87.5561,1.477,31.32,1111122 
DISL,ioos:station:DISL:PPTA:1,2012-10-02T05:30:00Z,30.2791,-87.5561,1.502,31.13,1111122 
DISL,ioos:station:DISL:PPTA:1,2012-10-02T06:00:00Z,30.2791,-87.5561,1.454,31.14,1111122 
DISL,ioos:station:DISL:PPTA:1,2012-10-02T06:30:00Z,30.2791,-87.5561,1.463,29.75,1111122 
DISL,ioos:station:DISL:PPTA:1,2012-10-02T07:00:00Z,30.2791,-87.5561,1.459,30.06,1111122 
DISL,ioos:station:DISL:PPTA:1,2012-10-02T07:30:00Z,30.2791,-87.5561,1.437,30.08,1111122 
DISL,ioos:station:DISL:PPTA:1,2012-10-02T08:00:00Z,30.2791,-87.5561,1.406,30.14,1111122 
DISL,ioos:station:DISL:PPTA:1,2012-10-02T08:30:00Z,30.2791,-87.5561,1.409,28.93,1111122 
DISL,ioos:station:DISL:PPTA:1,2012-10-02T09:00:00Z,30.2791,-87.5561,1.382,28.89,1111122 
DISL,ioos:station:DISL:PPTA:1,2012-10-02T09:30:00Z,30.2791,-87.5561,1.37,27.96,1111122 
DISL,ioos:station:DISL:PPTA:1,2012-10-02T10:00:00Z,30.2791,-87.5561,1.354,27.66,1111122 
DISL,ioos:station:DISL:PPTA:1,2012-10-02T10:30:00Z,30.2791,-87.5561,1.338,27.46,1111122 
DISL,ioos:station:DISL:PPTA:1,2012-10-02T11:00:00Z,30.2791,-87.5561,1.313,27.18,1111122 
DISL,ioos:station:DISL:PPTA:1,2012-10-02T11:30:00Z,30.2791,-87.5561,1.305,27.22,1111122 
DISL,ioos:station:DISL:PPTA:1,2012-10-02T12:00:00Z,30.2791,-87.5561,1.311,26.09,1111122 
DISL,ioos:station:DISL:PPTA:1,2012-10-02T12:30:00Z,30.2791,-87.5561,1.3,26.24,1111122 
DISL,ioos:station:DISL:PPTA:1,2012-10-02T13:00:00Z,30.2791,-87.5561,1.279,25.82,1111122 
DISL,ioos:station:DISL:PPTA:1,2012-10-02T13:30:00Z,30.2791,-87.5561,1.284,25.54,1111122 
DISL,ioos:station:DISL:PPTA:1,2012-10-02T14:00:00Z,30.2791,-87.5561,1.259,26.36,1111122 
DISL,ioos:station:DISL:PPTA:1,2012-10-02T14:30:00Z,30.2791,-87.5561,1.266,25.65,1111122 
DISL,ioos:station:DISL:PPTA:1,2012-10-02T15:00:00Z,30.2791,-87.5561,1.263,25.61,1111122 
DISL,ioos:station:DISL:PPTA:1,2012-10-02T15:30:00Z,30.2791,-87.5561,1.265,23.7,1111122 
DISL,ioos:station:DISL:PPTA:1,2012-10-02T16:00:00Z,30.2791,-87.5561,1.275,23.19,1111122 
DISL,ioos:station:DISL:PPTA:1,2012-10-02T16:30:00Z,30.2791,-87.5561,1.269,22.76,1111122 
DISL,ioos:station:DISL:PPTA:1,2012-10-02T17:00:00Z,30.2791,-87.5561,1.271,22.78,1111122 
DISL,ioos:station:DISL:PPTA:1,2012-10-02T17:30:00Z,30.2791,-87.5561,1.269,23.13,1111122 
DISL,ioos:station:DISL:PPTA:1,2012-10-02T18:00:00Z,30.2791,-87.5561,1.278,22.57,1111122 
DISL,ioos:station:DISL:PPTA:1,2012-10-02T18:30:00Z,30.2791,-87.5561,1.266,23.11,1111122 
DISL,ioos:station:DISL:PPTA:1,2012-10-02T19:00:00Z,30.2791,-87.5561,1.272,23.73,1111122 
DISL,ioos:station:DISL:PPTA:1,2012-10-02T19:30:00Z,30.2791,-87.5561,1.238,25.03,1111122 
DISL,ioos:station:DISL:PPTA:1,2012-10-02T20:00:00Z,30.2791,-87.5561,1.258,25.56,1111122 
DISL,ioos:station:DISL:PPTA:1,2012-10-02T20:30:00Z,30.2791,-87.5561,1.272,25.27,1111122 
DISL,ioos:station:DISL:PPTA:1,2012-10-02T21:00:00Z,30.2791,-87.5561,1.26,25.91,1111122 
DISL,ioos:station:DISL:PPTA:1,2012-10-02T21:30:00Z,30.2791,-87.5561,1.278,28.17,1111122 
DISL,ioos:station:DISL:PPTA:1,2012-10-02T22:00:00Z,30.2791,-87.5561,1.283,30.0,1111122 
DISL,ioos:station:DISL:PPTA:1,2012-10-02T22:30:00Z,30.2791,-87.5561,1.294,31.71,1111122 
DISL,ioos:station:DISL:PPTA:1,2012-10-02T23:00:00Z,30.2791,-87.5561,1.325,32.16,1111122 
DISL,ioos:station:DISL:PPTA:1,2012-10-02T23:30:00Z,30.2791,-87.5561,1.332,32.24,1111122 
DISL,ioos:station:DISL:PPTA:1,2012-10-03T00:00:00Z,30.2791,-87.5561,1.347,32.85,1111122 
DISL,ioos:station:DISL:PPTA:1,2012-10-03T00:30:00Z,30.2791,-87.5561,1.361,32.9,1111122 
DISL,ioos:station:DISL:PPTA:1,2012-10-03T01:00:00Z,30.2791,-87.5561,1.375,33.07,1111122 
DISL,ioos:station:DISL:PPTA:1,2012-10-03T01:30:00Z,30.2791,-87.5561,1.392,33.05,1111122 
DISL,ioos:station:DISL:PPTA:1,2012-10-03T02:00:00Z,30.2791,-87.5561,1.407,33.29,1111122 
DISL,ioos:station:DISL:PPTA:1,2012-10-03T02:30:00Z,30.2791,-87.5561,1.422,33.55,1111122 
DISL,ioos:station:DISL:PPTA:1,2012-10-03T03:00:00Z,30.2791,-87.5561,1.441,33.41,1111122 
DISL,ioos:station:DISL:PPTA:1,2012-10-03T03:30:00Z,30.2791,-87.5561,1.427,33.83,1111122 
DISL,ioos:station:DISL:PPTA:1,2012-10-03T04:00:00Z,30.2791,-87.5561,1.444,33.77,1111122 
DISL,ioos:station:DISL:PPTA:1,2012-10-03T04:30:00Z,30.2791,-87.5561,1.444,33.93,1111122 
DISL,ioos:station:DISL:PPTA:1,2012-10-03T05:00:00Z,30.2791,-87.5561,1.445,33.84,1111122 
DISL,ioos:station:DISL:PPTA:1,2012-10-03T05:30:00Z,30.2791,-87.5561,1.448,33.95,1111122 
DISL,ioos:station:DISL:PPTA:1,2012-10-03T06:00:00Z,30.2791,-87.5561,1.443,33.96,1111122 
DISL,ioos:station:DISL:PPTA:1,2012-10-03T06:30:00Z,30.2791,-87.5561,1.432,33.89,1111122 
DISL,ioos:station:DISL:PPTA:1,2012-10-03T07:00:00Z,30.2791,-87.5561,1.42,29.77,1111122 
DISL,ioos:station:DISL:PPTA:1,2012-10-03T07:30:00Z,30.2791,-87.5561,1.403,30.71,1111122 
DISL,ioos:station:DISL:PPTA:1,2012-10-03T08:00:00Z,30.2791,-87.5561,1.383,30.75,1111122 
DISL,ioos:station:DISL:PPTA:1,2012-10-03T08:30:00Z,30.2791,-87.5561,1.388,31.82,1111122 
DISL,ioos:station:DISL:PPTA:1,2012-10-03T09:00:00Z,30.2791,-87.5561,1.353,31.73,1111122 
DISL,ioos:station:DISL:PPTA:1,2012-10-03T09:30:00Z,30.2791,-87.5561,1.341,31.37,1111122 
DISL,ioos:station:DISL:PPTA:1,2012-10-03T10:00:00Z,30.2791,-87.5561,1.324,30.05,1111122 
DISL,ioos:station:DISL:PPTA:1,2012-10-03T10:30:00Z,30.2791,-87.5561,1.314,29.26,1111122 
DISL,ioos:station:DISL:PPTA:1,2012-10-03T11:00:00Z,30.2791,-87.5561,1.3,29.36,1111122 
DISL,ioos:station:DISL:PPTA:1,2012-10-03T11:30:00Z,30.2791,-87.5561,1.288,29.46,1111122 
DISL,ioos:station:DISL:PPTA:1,2012-10-03T12:00:00Z,30.2791,-87.5561,1.273,28.82,1111122 
DISL,ioos:station:DISL:PPTA:1,2012-10-03T12:30:00Z,30.2791,-87.5561,1.27,28.17,1111122 
DISL,ioos:station:DISL:PPTA:1,2012-10-03T13:00:00Z,30.2791,-87.5561,1.262,28.71,1111122 
DISL,ioos:station:DISL:PPTA:1,2012-10-03T13:30:00Z,30.2791,-87.5561,1.252,27.7,1111122 
DISL,ioos:station:DISL:PPTA:1,2012-10-03T14:00:00Z,30.2791,-87.5561,1.252,24.71,1111122 
DISL,ioos:station:DISL:PPTA:1,2012-10-03T14:30:00Z,30.2791,-87.5561,1.233,26.19,1111122 
DISL,ioos:station:DISL:PPTA:1,2012-10-03T15:00:00Z,30.2791,-87.5561,1.22,26.09,1111122 
DISL,ioos:station:DISL:PPTA:1,2012-10-03T15:30:00Z,30.2791,-87.5561,1.217,24.45,1111122 
DISL,ioos:station:DISL:PPTA:1,2012-10-03T16:00:00Z,30.2791,-87.5561,1.228,24.12,1111122 
DISL,ioos:station:DISL:PPTA:1,2012-10-03T16:30:00Z,30.2791,-87.5561,1.239,23.09,1111122 
DISL,ioos:station:DISL:PPTA:1,2012-10-03T17:00:00Z,30.2791,-87.5561,1.236,23.36,1111122 
DISL,ioos:station:DISL:PPTA:1,2012-10-03T17:30:00Z,30.2791,-87.5561,1.236,23.52,1111122 
DISL,ioos:station:DISL:PPTA:1,2012-10-03T18:00:00Z,30.2791,-87.5561,1.229,23.65,1111122 
DISL,ioos:station:DISL:PPTA:1,2012-10-03T18:30:00Z,30.2791,-87.5561,1.241,23.16,1111122 
DISL,ioos:station:DISL:PPTA:1,2012-10-03T19:00:00Z,30.2791,-87.5561,1.21,27.15,1111122 
DISL,ioos:station:DISL:PPTA:1,2012-10-03T19:30:00Z,30.2791,-87.5561,1.233,25.48,1111122 
DISL,ioos:station:DISL:PPTA:1,2012-10-03T20:00:00Z,30.2791,-87.5561,1.246,23.21,1111122 
DISL,ioos:station:DISL:PPTA:1,2012-10-03T20:30:00Z,30.2791,-87.5561,1.243,25.46,1111122 
DISL,ioos:station:DISL:PPTA:1,2012-10-03T21:00:00Z,30.2791,-87.5561,1.232,25.05,1111122 
DISL,ioos:station:DISL:PPTA:1,2012-10-03T21:30:00Z,30.2791,-87.5561,1.247,27.65,1111122 
DISL,ioos:station:DISL:PPTA:1,2012-10-03T22:00:00Z,30.2791,-87.5561,1.28,29.94,1111122 
DISL,ioos:station:DISL:PPTA:1,2012-10-03T22:30:00Z,30.2791,-87.5561,1.267,29.7,1111122 
DISL,ioos:station:DISL:PPTA:1,2012-10-03T23:00:00Z,30.2791,-87.5561,1.3,30.81,1111122 
DISL,ioos:station:DISL:PPTA:1,2012-10-03T23:30:00Z,30.2791,-87.5561,1.313,31.15,1111122 
DISL,ioos:station:DISL:PPTA:1,2012-10-04T00:00:00Z,30.2791,-87.5561,1.309,31.38,1111122 
DISL,ioos:station:DISL:PPTA:1,2012-10-04T00:30:00Z,30.2791,-87.5561,1.332,31.39,1111122 
DISL,ioos:station:DISL:PPTA:1,2012-10-04T01:00:00Z,30.2791,-87.5561,1.364,31.46,1111122 
DISL,ioos:station:DISL:PPTA:1,2012-10-04T01:30:00Z,30.2791,-87.5561,1.371,31.58,1111122 
DISL,ioos:station:DISL:PPTA:1,2012-10-04T02:00:00Z,30.2791,-87.5561,1.384,31.54,1111122 
DISL,ioos:station:DISL:PPTA:1,2012-10-04T02:30:00Z,30.2791,-87.5561,1.417,31.53,1111122 
DISL,ioos:station:DISL:PPTA:1,2012-10-04T03:00:00Z,30.2791,-87.5561,1.435,31.57,1111122 
DISL,ioos:station:DISL:PPTA:1,2012-10-04T03:30:00Z,30.2791,-87.5561,1.45,31.58,1111122 
DISL,ioos:station:DISL:PPTA:1,2012-10-04T04:00:00Z,30.2791,-87.5561,1.459,31.59,1111122 
DISL,ioos:station:DISL:PPTA:1,2012-10-04T04:30:00Z,30.2791,-87.5561,1.459,31.63,1111122 
DISL,ioos:station:DISL:PPTA:1,2012-10-04T05:00:00Z,30.2791,-87.5561,1.466,31.63,1111122 
DISL,ioos:station:DISL:PPTA:1,2012-10-04T05:30:00Z,30.2791,-87.5561,1.458,31.65,1111122 
DISL,ioos:station:DISL:PPTA:1,2012-10-04T06:00:00Z,30.2791,-87.5561,1.451,31.65,1111122 
DISL,ioos:station:DISL:PPTA:1,2012-10-04T06:30:00Z,30.2791,-87.5561,1.465,31.65,1111122 
DISL,ioos:station:DISL:PPTA:1,2012-10-04T07:00:00Z,30.2791,-87.5561,1.447,31.68,1111122 
DISL,ioos:station:DISL:PPTA:1,2012-10-04T07:30:00Z,30.2791,-87.5561,1.439,31.58,1111122 
DISL,ioos:station:DISL:PPTA:1,2012-10-04T08:00:00Z,30.2791,-87.5561,1.426,31.62,1111122 
DISL,ioos:station:DISL:PPTA:1,2012-10-04T08:30:00Z,30.2791,-87.5561,1.411,30.38,1111122 
DISL,ioos:station:DISL:PPTA:1,2012-10-04T09:00:00Z,30.2791,-87.5561,1.388,28.33,1111122 
DISL,ioos:station:DISL:PPTA:1,2012-10-04T09:30:00Z,30.2791,-87.5561,1.37,29.25,1111122 
DISL,ioos:station:DISL:PPTA:1,2012-10-04T10:00:00Z,30.2791,-87.5561,1.375,30.76,1111122 
DISL,ioos:station:DISL:PPTA:1,2012-10-04T10:30:00Z,30.2791,-87.5561,1.346,30.7,1111122 
DISL,ioos:station:DISL:PPTA:1,2012-10-04T11:00:00Z,30.2791,-87.5561,1.344,29.16,1111122 
DISL,ioos:station:DISL:PPTA:1,2012-10-04T11:30:00Z,30.2791,-87.5561,1.338,27.6,1111122 
DISL,ioos:station:DISL:PPTA:1,2012-10-04T12:00:00Z,30.2791,-87.5561,1.304,27.75,1111122 
DISL,ioos:station:DISL:PPTA:1,2012-10-04T12:30:00Z,30.2791,-87.5561,1.299,27.64,1111122 
DISL,ioos:station:DISL:PPTA:1,2012-10-04T13:00:00Z,30.2791,-87.5561,1.287,27.28,1111122 
DISL,ioos:station:DISL:PPTA:1,2012-10-04T13:30:00Z,30.2791,-87.5561,1.269,27.25,1111122 
DISL,ioos:station:DISL:PPTA:1,2012-10-04T14:00:00Z,30.2791,-87.5561,1.255,27.05,1111122 
DISL,ioos:station:DISL:PPTA:1,2012-10-04T14:30:00Z,30.2791,-87.5561,1.24,26.96,1111122 
DISL,ioos:station:DISL:PPTA:1,2012-10-04T15:00:00Z,30.2791,-87.5561,1.244,25.39,1111122 
DISL,ioos:station:DISL:PPTA:1,2012-10-04T15:30:00Z,30.2791,-87.5561,1.219,25.67,1111122 
DISL,ioos:station:DISL:PPTA:1,2012-10-04T16:00:00Z,30.2791,-87.5561,1.203,25.37,1111122 
DISL,ioos:station:DISL:PPTA:1,2012-10-04T16:30:00Z,30.2791,-87.5561,1.206,25.96,1111122 
DISL,ioos:station:DISL:PPTA:1,2012-10-04T17:00:00Z,30.2791,-87.5561,1.215,23.0,1111122 
DISL,ioos:station:DISL:PPTA:1,2012-10-04T17:30:00Z,30.2791,-87.5561,1.216,22.86,1111122 
DISL,ioos:station:DISL:PPTA:1,2012-10-04T18:00:00Z,30.2791,-87.5561,1.219,22.93,1111122 
DISL,ioos:station:DISL:PPTA:1,2012-10-04T18:30:00Z,30.2791,-87.5561,1.201,23.14,1111122 
DISL,ioos:station:DISL:PPTA:1,2012-10-04T19:00:00Z,30.2791,-87.5561,1.204,22.99,1111122 
DISL,ioos:station:DISL:PPTA:1,2012-10-04T19:30:00Z,30.2791,-87.5561,1.188,23.18,1111122 
DISL,ioos:station:DISL:PPTA:1,2012-10-04T20:00:00Z,30.2791,-87.5561,1.19,22.77,1111122 
DISL,ioos:station:DISL:PPTA:1,2012-10-04T20:30:00Z,30.2791,-87.5561,1.212,24.62,1111122 
DISL,ioos:station:DISL:PPTA:1,2012-10-04T21:00:00Z,30.2791,-87.5561,1.195,22.67,1111122 
DISL,ioos:station:DISL:PPTA:1,2012-10-04T21:30:00Z,30.2791,-87.5561,1.222,23.78,1111122 
DISL,ioos:station:DISL:PPTA:1,2012-10-04T22:00:00Z,30.2791,-87.5561,1.227,23.12,1111122 
DISL,ioos:station:DISL:PPTA:1,2012-10-04T22:30:00Z,30.2791,-87.5561,1.218,23.53,1111122 
DISL,ioos:station:DISL:PPTA:1,2012-10-04T23:00:00Z,30.2791,-87.5561,1.226,26.07,1111122 
DISL,ioos:station:DISL:PPTA:1,2012-10-04T23:30:00Z,30.2791,-87.5561,1.246,28.82,1111122 
DISL,ioos:station:DISL:PPTA:1,2012-10-05T00:00:00Z,30.2791,-87.5561,1.255,29.39,1111122 
DISL,ioos:station:DISL:PPTA:1,2012-10-05T00:30:00Z,30.2791,-87.5561,1.28,30.13,1111122 
DISL,ioos:station:DISL:PPTA:1,2012-10-05T01:00:00Z,30.2791,-87.5561,1.286,29.93,1111122 
DISL,ioos:station:DISL:PPTA:1,2012-10-05T01:30:00Z,30.2791,-87.5561,1.303,30.52,1111122 
DISL,ioos:station:DISL:PPTA:1,2012-10-05T02:00:00Z,30.2791,-87.5561,1.314,30.57,1111122 
DISL,ioos:station:DISL:PPTA:1,2012-10-05T02:30:00Z,30.2791,-87.5561,1.327,30.5,1111122 
DISL,ioos:station:DISL:PPTA:1,2012-10-05T03:00:00Z,30.2791,-87.5561,1.359,30.62,1111122 
DISL,ioos:station:DISL:PPTA:1,2012-10-05T03:30:00Z,30.2791,-87.5561,1.372,30.59,1111122 
DISL,ioos:station:DISL:PPTA:1,2012-10-05T04:00:00Z,30.2791,-87.5561,1.38,30.52,1111122 
DISL,ioos:station:DISL:PPTA:1,2012-10-05T04:30:00Z,30.2791,-87.5561,1.385,30.5,1111122 
DISL,ioos:station:DISL:PPTA:1,2012-10-05T05:00:00Z,30.2791,-87.5561,1.392,30.48,1111122 
DISL,ioos:station:DISL:PPTA:1,2012-10-05T05:30:00Z,30.2791,-87.5561,1.405,30.53,1111122 
DISL,ioos:station:DISL:PPTA:1,2012-10-05T06:00:00Z,30.2791,-87.5561,1.407,30.51,1111122 
DISL,ioos:station:DISL:PPTA:1,2012-10-05T06:30:00Z,30.2791,-87.5561,1.395,30.61,1111122 
DISL,ioos:station:DISL:PPTA:1,2012-10-05T07:00:00Z,30.2791,-87.5561,1.402,30.41,1111122 
DISL,ioos:station:DISL:PPTA:1,2012-10-05T07:30:00Z,30.2791,-87.5561,1.405,30.59,1111122 
DISL,ioos:station:DISL:PPTA:1,2012-10-05T08:00:00Z,30.2791,-87.5561,1.37,30.63,1111122 
DISL,ioos:station:DISL:PPTA:1,2012-10-05T08:30:00Z,30.2791,-87.5561,1.367,30.62,1111122 
DISL,ioos:station:DISL:PPTA:1,2012-10-05T09:00:00Z,30.2791,-87.5561,1.358,30.49,1111122 
DISL,ioos:station:DISL:PPTA:1,2012-10-05T09:30:00Z,30.2791,-87.5561,1.363,27.73,1111122 
DISL,ioos:station:DISL:PPTA:1,2012-10-05T10:00:00Z,30.2791,-87.5561,1.346,26.78,1111122 
DISL,ioos:station:DISL:PPTA:1,2012-10-05T10:30:00Z,30.2791,-87.5561,1.325,29.87,1111122 
DISL,ioos:station:DISL:PPTA:1,2012-10-05T11:00:00Z,30.2791,-87.5561,1.327,29.78,1111122 
DISL,ioos:station:DISL:PPTA:1,2012-10-05T11:30:00Z,30.2791,-87.5561,1.31,29.21,1111122 
DISL,ioos:station:DISL:PPTA:1,2012-10-05T12:00:00Z,30.2791,-87.5561,1.304,28.08,1111122 
DISL,ioos:station:DISL:PPTA:1,2012-10-05T12:30:00Z,30.2791,-87.5561,1.284,27.03,1111122 
DISL,ioos:station:DISL:PPTA:1,2012-10-05T13:00:00Z,30.2791,-87.5561,1.264,27.0,1111122 
DISL,ioos:station:DISL:PPTA:1,2012-10-05T13:30:00Z,30.2791,-87.5561,1.272,25.29,1111122 
DISL,ioos:station:DISL:PPTA:1,2012-10-05T14:00:00Z,30.2791,-87.5561,1.256,25.73,1111122 
DISL,ioos:station:DISL:PPTA:1,2012-10-05T14:30:00Z,30.2791,-87.5561,1.243,24.46,1111122 
DISL,ioos:station:DISL:PPTA:1,2012-10-05T15:00:00Z,30.2791,-87.5561,1.234,24.35,1111122 
DISL,ioos:station:DISL:PPTA:1,2012-10-05T15:30:00Z,30.2791,-87.5561,1.22,24.9,1111122 
DISL,ioos:station:DISL:PPTA:1,2012-10-05T16:00:00Z,30.2791,-87.5561,1.227,22.93,1111122 
DISL,ioos:station:DISL:PPTA:1,2012-10-05T16:30:00Z,30.2791,-87.5561,1.201,23.91,1111122 
DISL,ioos:station:DISL:PPTA:1,2012-10-05T17:00:00Z,30.2791,-87.5561,1.212,22.51,1111122 
DISL,ioos:station:DISL:PPTA:1,2012-10-05T17:30:00Z,30.2791,-87.5561,1.208,22.35,1111122 
DISL,ioos:station:DISL:PPTA:1,2012-10-05T18:00:00Z,30.2791,-87.5561,1.208,22.16,1111122 
DISL,ioos:station:DISL:PPTA:1,2012-10-05T18:30:00Z,30.2791,-87.5561,1.22,24.34,1111122 
DISL,ioos:station:DISL:PPTA:1,2012-10-05T19:00:00Z,30.2791,-87.5561,1.221,21.4,1111122 
DISL,ioos:station:DISL:PPTA:1,2012-10-05T19:30:00Z,30.2791,-87.5561,1.203,25.25,1111122 
DISL,ioos:station:DISL:PPTA:1,2012-10-05T20:00:00Z,30.2791,-87.5561,1.225,23.92,1111122 
DISL,ioos:station:DISL:PPTA:1,2012-10-05T20:30:00Z,30.2791,-87.5561,1.212,23.14,1111122 
DISL,ioos:station:DISL:PPTA:1,2012-10-05T21:00:00Z,30.2791,-87.5561,1.222,24.9,1111122 
DISL,ioos:station:DISL:PPTA:1,2012-10-05T21:30:00Z,30.2791,-87.5561,1.251,26.36,1111122 
DISL,ioos:station:DISL:PPTA:1,2012-10-05T22:00:00Z,30.2791,-87.5561,1.239,26.18,1111122 
DISL,ioos:station:DISL:PPTA:1,2012-10-05T22:30:00Z,30.2791,-87.5561,1.253,27.96,1111122 
DISL,ioos:station:DISL:PPTA:1,2012-10-05T23:00:00Z,30.2791,-87.5561,1.231,28.8,1111122 
DISL,ioos:station:DISL:PPTA:1,2012-10-05T23:30:00Z,30.2791,-87.5561,1.266,29.72,1111122 
DISL,ioos:station:DISL:PPTA:1,2012-10-06T00:00:00Z,30.2791,-87.5561,1.297,29.58,1111122 
DISL,ioos:station:DISL:PPTA:1,2012-10-06T00:30:00Z,30.2791,-87.5561,1.311,29.56,1111122 
DISL,ioos:station:DISL:PPTA:1,2012-10-06T01:00:00Z,30.2791,-87.5561,1.336,30.04,1111122 
DISL,ioos:station:DISL:PPTA:1,2012-10-06T01:30:00Z,30.2791,-87.5561,1.337,30.16,1111122 
DISL,ioos:station:DISL:PPTA:1,2012-10-06T02:00:00Z,30.2791,-87.5561,1.358,30.18,1111122 
DISL,ioos:station:DISL:PPTA:1,2012-10-06T02:30:00Z,30.2791,-87.5561,1.387,30.25,1111122 
DISL,ioos:station:DISL:PPTA:1,2012-10-06T03:00:00Z,30.2791,-87.5561,1.387,30.2,1111122 
DISL,ioos:station:DISL:PPTA:1,2012-10-06T03:30:00Z,30.2791,-87.5561,1.417,30.22,1111122 
DISL,ioos:station:DISL:PPTA:1,2012-10-06T04:00:00Z,30.2791,-87.5561,1.415,30.22,1111122 
DISL,ioos:station:DISL:PPTA:1,2012-10-06T04:30:00Z,30.2791,-87.5561,1.429,30.19,1111122 
DISL,ioos:station:DISL:PPTA:1,2012-10-06T05:00:00Z,30.2791,-87.5561,1.436,30.22,1111122 
DISL,ioos:station:DISL:PPTA:1,2012-10-06T05:30:00Z,30.2791,-87.5561,1.427,30.21,1111122 
DISL,ioos:station:DISL:PPTA:1,2012-10-06T06:00:00Z,30.2791,-87.5561,1.435,30.21,1111122 
DISL,ioos:station:DISL:PPTA:1,2012-10-06T06:30:00Z,30.2791,-87.5561,1.448,30.23,1111122 
DISL,ioos:station:DISL:PPTA:1,2012-10-06T07:00:00Z,30.2791,-87.5561,1.45,30.27,1111122 
DISL,ioos:station:DISL:PPTA:1,2012-10-06T07:30:00Z,30.2791,-87.5561,1.442,30.32,1111122 
DISL,ioos:station:DISL:PPTA:1,2012-10-06T08:00:00Z,30.2791,-87.5561,1.42,30.42,1111122 
DISL,ioos:station:DISL:PPTA:1,2012-10-06T08:30:00Z,30.2791,-87.5561,1.425,30.35,1111122 
DISL,ioos:station:DISL:PPTA:1,2012-10-06T09:00:00Z,30.2791,-87.5561,1.413,30.42,1111122 
DISL,ioos:station:DISL:PPTA:1,2012-10-06T09:30:00Z,30.2791,-87.5561,1.405,28.53,1111122 
DISL,ioos:station:DISL:PPTA:1,2012-10-06T10:00:00Z,30.2791,-87.5561,1.39,28.14,1111122 
DISL,ioos:station:DISL:PPTA:1,2012-10-06T10:30:00Z,30.2791,-87.5561,1.38,28.63,1111122 
DISL,ioos:station:DISL:PPTA:1,2012-10-06T11:00:00Z,30.2791,-87.5561,1.357,29.22,1111122 
DISL,ioos:station:DISL:PPTA:1,2012-10-06T11:30:00Z,30.2791,-87.5561,1.346,28.89,1111122 
DISL,ioos:station:DISL:PPTA:1,2012-10-06T12:00:00Z,30.2791,-87.5561,1.329,28.13,1111122 
DISL,ioos:station:DISL:PPTA:1,2012-10-06T12:30:00Z,30.2791,-87.5561,1.312,25.77,1111122 
DISL,ioos:station:DISL:PPTA:1,2012-10-06T13:00:00Z,30.2791,-87.5561,1.299,26.93,1111122 
DISL,ioos:station:DISL:PPTA:1,2012-10-06T13:30:00Z,30.2791,-87.5561,1.288,26.31,1111122 
DISL,ioos:station:DISL:PPTA:1,2012-10-06T14:00:00Z,30.2791,-87.5561,1.266,25.9,1111122 